DateTimeUTC,F1_A11,F1_S11,BsB_S11,BsG_S11,BsR_S11,BbsB_S11,BbsG_S11,BbsR_S11,BaB_A11,BaG_A11,BaR_A11,Tu_S11,T_S11,Uu_S11,U_S11,P_S11,T1_A11
2021-11-08T14:00:00Z,00000200,21000000,,,,,,,-000.02,0000.02,-000.03,18.5,25.6,,00.0,0642.7,31.0
2021-11-08T14:01:00Z,00000200,21000000,,,,,,,-000.14,0000.26,0000.47,18.5,25.6,,00.0,0642.6,31.0
2021-11-08T14:02:00Z,00000200,21000000,,,,,,,0000.24,-000.13,-000.27,18.6,25.6,,00.0,0642.6,31.0
2021-11-08T14:03:00Z,00000200,61000000,,,,,,,-000.11,-000.03,0000.17,18.6,25.7,,00.0,0642.6,31.0
2021-11-08T14:04:00Z,00000200,41000000,0000.02,-000.22,-000.21,0000.26,-000.07,0000.20,0000.14,0000.55,-000.22,19.0,25.6,,00.0,0643.5,31.0
2021-11-08T14:05:00Z,00000200,01000000,0000.29,-000.00,0000.55,0000.15,0000.17,0000.14,-000.41,-000.30,-000.01,19.1,25.6,,00.0,0643.5,31.0
2021-11-08T14:06:00Z,00000200,01000000,-000.12,0000.04,-000.04,-000.31,0000.24,0000.11,0000.21,0000.07,0000.29,19.1,25.6,,00.0,0643.5,31.0
2021-11-08T14:07:00Z,00000200,01000000,0000.16,0000.02,-000.04,-000.37,-000.11,-000.13,0000.24,-000.19,-000.25,19.0,25.5,,00.0,0643.5,31.0
2021-11-08T14:08:00Z,00000200,01000000,-000.50,0000.22,-000.15,-000.19,0000.08,-000.02,-000.43,-000.01,0000.02,18.9,25.5,,00.0,0643.5,30.9
2021-11-08T14:09:00Z,00000200,01000000,0000.53,-000.09,-000.28,-000.26,0000.14,-000.22,0000.13,-000.04,-000.18,18.8,25.4,,00.0,0643.5,30.9
2021-11-08T14:10:00Z,00000200,01000000,0000.74,-000.02,-000.08,-000.20,0000.27,0000.06,0000.08,0000.18,0000.03,18.7,25.3,,00.0,0643.5,30.9
2021-11-08T14:11:00Z,00000200,01000000,0000.05,0000.17,0000.30,-000.06,0000.21,0000.11,0000.12,0000.05,0000.04,18.7,25.3,,00.0,0643.5,30.9
2021-11-08T14:12:00Z,00000200,01000000,0000.64,-000.10,0000.05,-000.21,0000.06,-000.17,-000.28,-000.40,0000.12,18.7,25.3,,00.0,0643.5,30.9
2021-11-08T14:13:00Z,00000200,01000000,-000.32,-000.06,-000.36,-000.17,0000.18,-000.26,0000.44,0000.33,-000.24,18.8,25.3,,00.0,0643.5,30.9
2021-11-08T14:14:00Z,00000200,01000000,-000.68,0000.26,0000.06,-000.29,0000.15,0000.13,-000.31,0000.04,0000.07,18.8,25.4,,00.0,0643.5,30.9
2021-11-08T14:15:00Z,00000200,01000000,0000.06,-000.01,0000.25,0000.31,-000.04,0000.01,0000.10,0000.05,0000.16,18.9,25.4,,00.0,0643.5,31.0
2021-11-08T14:16:00Z,00000200,01000000,-000.12,-000.34,0000.31,0000.35,0000.25,0000.16,-000.03,0000.30,-000.10,19.0,25.4,,00.0,0643.5,31.0
2021-11-08T14:17:00Z,00000200,01000000,0000.64,-000.12,-000.11,-000.33,-000.13,-000.17,0000.22,-000.59,0000.08,19.0,25.4,,00.0,0643.5,31.0
2021-11-08T14:18:00Z,00000200,01000000,0000.15,-000.36,-000.24,-000.10,0000.06,-000.08,0000.26,0000.42,-000.01,19.1,25.4,,00.0,0643.5,31.0
2021-11-08T14:19:00Z,00000200,01000000,-000.13,-000.16,0000.36,0000.22,0000.24,0000.15,-000.50,-000.45,0000.20,19.1,25.5,,00.0,0643.5,31.0
2021-11-08T14:20:00Z,00000200,01000000,-000.45,-000.06,-000.14,-000.02,0000.12,-000.31,0000.36,0000.07,-000.15,19.2,25.5,,00.0,0643.5,31.0
2021-11-08T14:21:00Z,00000200,01000000,0000.00,0000.01,0000.04,-000.19,-000.07,0000.04,-000.26,-000.13,-000.26,19.2,25.5,,00.0,0643.6,31.0
2021-11-08T14:22:00Z,00000200,01000000,-000.39,0000.09,-000.04,-000.07,-000.14,0000.20,-000.01,-000.06,-000.06,19.2,25.5,,00.0,0643.6,31.0
2021-11-08T14:23:00Z,00000200,01000000,-000.45,0000.04,0000.05,0000.75,-000.09,-000.51,-000.20,0000.11,0000.16,19.1,25.5,,00.0,0643.5,31.0
2021-11-08T14:24:00Z,00000200,01000000,0000.28,0000.02,-000.12,0000.26,-000.00,-000.10,0000.14,-000.16,0000.28,19.0,25.4,,00.0,0643.6,30.9
2021-11-08T14:25:00Z,00000200,01000000,0000.62,0000.25,0000.12,0000.79,0000.17,0000.27,-000.05,0000.10,-000.51,19.0,25.4,,00.0,0643.6,30.9
2021-11-08T14:26:00Z,00000200,01000000,-000.19,-000.31,0000.03,0000.42,-000.19,0000.16,0000.04,-000.02,0000.04,18.9,25.4,,00.0,0643.6,30.9
2021-11-08T14:27:00Z,00000200,01000000,0000.42,-000.21,-000.19,-000.22,0000.26,-000.11,-000.09,-000.29,0000.02,18.9,25.4,,00.0,0643.6,30.9
2021-11-08T14:28:00Z,00000200,01000000,0000.27,-000.11,0000.01,0000.55,-000.18,-000.20,-000.11,0000.30,0000.07,19.0,25.4,,00.0,0643.6,31.0
2021-11-08T14:29:00Z,00000200,01000000,-000.22,0000.08,-000.24,-000.18,-000.02,-000.13,0000.33,0000.35,0000.21,19.0,25.4,,00.0,0643.6,31.0
2021-11-08T14:30:00Z,00000200,01000000,0000.41,0000.27,-000.08,0000.40,0000.16,-000.28,-000.09,0000.04,-000.22,19.1,25.4,,00.0,0643.6,31.0
2021-11-08T14:31:00Z,00000200,01000000,0000.12,-000.36,0000.06,0000.18,0000.04,0000.16,0000.13,0000.16,0000.06,19.1,25.4,,00.0,0643.6,31.0
2021-11-08T14:32:00Z,00000200,01000000,-000.06,0000.01,0000.04,0000.73,0000.22,0000.16,-000.48,-000.37,-000.06,19.2,25.4,,00.0,0643.6,31.0
2021-11-08T14:33:00Z,00000200,01000000,0000.00,-000.06,0000.24,0000.28,-000.25,0000.25,0000.54,0000.24,-000.00,19.2,25.5,,00.0,0643.7,31.0
2021-11-08T14:34:00Z,00000200,01000000,0000.24,-000.16,0000.22,-000.06,-000.06,0000.08,0000.07,-000.16,0000.17,19.3,25.5,,00.0,0643.7,31.0
2021-11-08T14:35:00Z,00000200,01000000,-000.33,-000.13,-000.04,-000.16,-000.14,-000.02,-000.04,0000.07,-000.09,19.3,25.5,,00.0,0643.7,31.0
2021-11-08T14:36:00Z,00000200,01000000,0000.59,-000.09,0000.31,0000.22,-000.11,0000.20,-000.03,-000.09,0000.01,19.4,25.5,,00.0,0643.7,31.0
2021-11-08T14:37:00Z,00000200,01000000,-000.00,-000.52,0000.03,-000.15,-000.09,-000.07,0000.01,-000.10,-000.43,19.4,25.6,,00.0,0643.7,31.0
2021-11-08T14:38:00Z,00000200,01000000,0000.43,0000.00,-000.01,0000.42,-000.07,-000.01,-000.23,-000.05,0000.29,19.3,25.5,,00.0,0643.6,31.0
2021-11-08T14:39:00Z,00000200,01000000,-000.64,0000.04,-000.13,-000.00,0000.18,0000.06,-000.05,-000.31,-000.10,19.2,25.5,,00.0,0643.6,31.0
2021-11-08T14:40:00Z,00000200,01000000,-000.51,-000.07,-000.13,0000.63,-000.09,0000.26,0000.16,0000.05,-000.05,19.1,25.5,,00.0,0643.6,30.9
2021-11-08T14:41:00Z,00000200,01000000,0000.64,-000.53,0000.15,-000.09,-000.05,0000.22,-000.09,0000.09,0000.17,19.1,25.4,,00.0,0643.6,30.9
2021-11-08T14:42:00Z,00000200,01000000,0000.07,-000.15,-000.11,0000.31,-000.06,-000.03,-000.24,0000.16,-000.33,19.1,25.5,,00.0,0643.6,30.9
2021-11-08T14:43:00Z,00000200,01000000,0000.28,0000.08,0000.06,-000.17,-000.13,0000.13,0000.22,0000.04,0000.02,19.2,25.5,,00.0,0643.6,31.0
2021-11-08T14:44:00Z,00000200,01000000,-000.00,-000.04,0000.35,-000.47,0000.18,0000.05,-000.06,-000.13,0000.01,19.2,25.5,,00.0,0643.6,31.0
2021-11-08T14:45:00Z,00000200,01000000,0000.06,0000.08,0000.50,-000.09,0000.18,0000.27,0000.03,-000.04,0000.10,19.2,25.5,,00.0,0643.6,31.0
2021-11-08T14:46:00Z,00000200,01000000,0000.04,0000.06,-000.25,-000.46,-000.13,-000.02,-000.15,0000.20,0000.09,19.3,25.5,,00.0,0643.6,31.0
2021-11-08T14:47:00Z,00000200,01000000,0000.25,0000.14,0000.37,0000.60,-000.24,0000.10,0000.13,-000.30,-000.04,19.4,25.5,,00.0,0643.6,31.0
2021-11-08T14:48:00Z,00000200,01000000,0000.26,-000.07,-000.01,0000.03,0000.15,-000.09,0000.30,0000.16,0000.15,19.4,25.6,,00.0,0643.6,31.0
2021-11-08T14:49:00Z,00000200,01000000,-000.90,0000.16,0000.21,0000.51,-000.22,0000.28,0000.01,-000.04,-000.26,19.4,25.6,,00.0,0643.6,31.0
2021-11-08T14:50:00Z,00000200,01000000,-000.02,-000.04,0000.28,0000.19,0000.15,0000.15,-000.18,-000.06,-000.28,19.5,25.6,,00.0,0643.6,31.0
2021-11-08T14:51:00Z,00000200,01000000,-000.35,0000.17,0000.01,-000.14,0000.01,0000.40,-000.02,0000.20,0000.25,19.5,25.6,,00.0,0643.6,31.0
2021-11-08T14:52:00Z,00000200,01000000,0000.19,-000.16,0000.30,0000.53,-000.02,0000.58,-000.13,-000.52,-000.01,19.5,25.6,,00.0,0643.6,31.0
2021-11-08T14:53:00Z,00000200,01000000,-000.46,-000.38,-000.15,0000.75,0000.00,-000.06,-000.24,0000.37,0000.17,19.4,25.6,,00.0,0643.6,31.0
2021-11-08T14:54:00Z,00000200,01000000,0000.30,0000.10,0000.16,0000.14,0000.24,-000.11,0000.06,-000.25,-000.41,19.2,25.6,,00.0,0643.6,30.9
2021-11-08T14:55:00Z,00000200,01000000,-000.46,0000.12,0000.17,-000.66,0000.20,0000.10,0000.31,-000.53,0000.05,19.1,25.5,,00.0,0643.6,30.9
2021-11-08T14:56:00Z,00000200,01000000,-001.04,-000.18,-000.14,0000.26,0000.13,-000.24,0000.01,0000.58,0000.28,19.1,25.5,,00.0,0643.6,31.0
2021-11-08T14:57:00Z,00000200,41000000,,,,,,,0000.43,0000.66,0000.71,19.1,25.5,,00.0,0643.7,31.0
2021-11-08T14:58:00Z,00000200,61000000,,,,,,,-000.33,-000.37,-000.41,18.9,25.6,,00.0,0642.7,31.0
2021-11-08T14:59:00Z,00000200,21000000,,,,,,,-000.01,-000.44,-000.38,18.9,25.7,,00.0,0642.7,31.0
